Tracking 33877 objects as of 19-Apr-2026
HD Live streaming from Space Station
objects crossing your sky now

COSMOS 1275 DEB

Track COSMOS 1275 DEB now!
10-day predictions


NORAD ID: 42184
Int'l Code: 1981-053SY
Perigee: 964.4 km
Apogee: 1,104.3 km
Inclination: 83.0 °
Period: 105.7 minutes
Semi major axis: 7405 km
RCS: Unknown
Launch date: June 4, 1981
Source: Commonwealth of Independent States (former USSR) (CIS)
Launch site: PLESETSK MISSILE AND SPACE COMPLEX (PKMTR)

Note: This is SATELLITE DEBRIS
Your satellite tracking list
Your tracking list is empty




NASA's NSSDC Master Catalog

Two Line Element Set (TLE):
1 42184U 81053SY  26107.92584949  .00000163  00000-0  18754-3 0  9990
2 42184  83.0252 351.1213 0094459 266.1308 110.0152 13.62349191603350
Source of the keplerian elements: AFSPC